Volver al catálogo

STARLINK-3564

ActivoComunicacionesVLEO
NORAD 52302·PAYLOAD·🇺🇸 United States

Lanzado Apr 21, 2022 desde Cape Canaveral Space Force Station

Loading…

Próximos Pases (próximas 24 horas)

TLE

ActualizadoSource: CelesTrak SupGP

Época: Sep 15, 2026, 01:22 UTC

1 52302C 22041AT  26258.05743056  .00033208  00000+0  10679-2 0  2582
2 52302  53.1568 305.1444 0001244  90.1573  35.0702 15.31683759    15

Sigue STARLINK-3564 en tiempo real con AllMySat

Download on the App Store